DW1814 Weather Reports


Display with metric or nautical units.
time (UTC)temp
F
wind
direction
speed
MPH
gust
MPH
rain 1hr
in
rain 24hr
in
rain mn
in
humidity
%
barometer
mb
20260906203241 76 161 0.0 5.0 0.00 0.00 0.00 64 1018.4
20260906202738 76 22 2.0 5.0 0.00 0.00 0.00 62 1018.6
20260906202237 76 339 2.0 8.0 0.00 0.00 0.00 62 1018.8
20260906201733 76 48 2.0 2.0 0.00 0.00 0.00 64 1018.4
20260906201232 76 92 2.0 5.0 0.00 0.00 0.00 60 1018.7
20260906200728 77 0 4.0 5.0 0.00 0.00 0.00 62 1018.6
20260906200224 76 162 1.0 5.0 0.00 0.00 0.00 61 1018.8
20260906195719 76 334 3.0 4.0 0.00 0.00 0.00 62 1018.9
20260906195216 76 14 5.0 9.0 0.00 0.00 0.00 61 1018.7
20260906194711 76 345 2.0 4.0 0.00 0.00 0.00 62 1018.8
20260906194206 77 82 2.0 5.0 0.00 0.00 0.00 62 1018.8
20260906193701 77 308 5.0 5.0 0.00 0.00 0.00 61 1018.8
20260906193156 76 80 1.0 5.0 0.00 0.00 0.00 63 1018.8
20260906192653 76 79 3.0 7.0 0.00 0.00 0.00 63 1018.8
20260906192152 76 46 0.0 3.0 0.00 0.00 0.00 64 1018.7
20260906191647 76 123 2.0 5.0 0.00 0.00 0.00 63 1018.8
20260906191146 76 97 1.0 5.0 0.00 0.00 0.00 64 1018.6
20260906190645 76 33 2.0 3.0 0.00 0.00 0.00 65 1018.9
20260906190141 76 66 3.0 6.0 0.00 0.00 0.00 64 1019.1
20260906185639 76 320 3.0 5.0 0.00 0.00 0.00 63 1019.0
20260906185139 76 37 5.0 6.0 0.00 0.00 0.00 63 1018.8
20260906184633 76 349 2.0 4.0 0.00 0.00 0.00 63 1019.1
20260906184129 76 18 3.0 5.0 0.00 0.00 0.00 64 1018.9
20260906183625 76 26 1.0 3.0 0.00 0.00 0.00 63 1018.9
20260906183120 77 115 3.0 6.0 0.00 0.00 0.00 61 1018.9
20260906182615 77 57 1.0 2.0 0.00 0.00 0.00 64 1018.8
20260906182112 77 31 1.0 7.0 0.00 0.00 0.00 64 1018.8
20260906181607 78 19 3.0 6.0 0.00 0.00 0.00 64 1018.9
20260906181103 77 15 1.0 3.0 0.00 0.00 0.00 64 1018.9
20260906180603 77 119 0.0 6.0 0.00 0.00 0.00 62 1018.8
20260906175601 77 25 4.0 4.0 0.00 0.00 0.00 64 1018.8
20260906175056 77 38 2.0 6.0 0.00 0.00 0.00 61 1019.1
20260906174554 77 135 0.0 2.0 0.00 0.00 0.00 63 1019.1
20260906174049 77 34 3.0 5.0 0.00 0.00 0.00 63 1019.1
20260906173544 77 0 2.0 5.0 0.00 0.00 0.00 64 1019.1
20260906173040 78 137 1.0 5.0 0.00 0.00 0.00 66 1019.2
20260906172534 77 6 2.0 3.0 0.00 0.00 0.00 65 1019.1
20260906172030 77 321 2.0 5.0 0.00 0.00 0.00 66 1019.0
20260906171524 77 3 3.0 8.0 0.00 0.00 0.00 65 1019.3
20260906171020 77 349 6.0 8.0 0.00 0.00 0.00 67 1019.5
20260906170516 78 358 4.0 6.0 0.00 0.00 0.00 67 1019.4
20260906170014 78 47 3.0 4.0 0.00 0.00 0.00 68 1019.4
20260906165512 78 6 1.0 4.0 0.00 0.00 0.00 66 1019.4
20260906165007 78 13 0.0 4.0 0.00 0.00 0.00 68 1019.4
20260906164505 77 0 3.0 3.0 0.00 0.00 0.00 70 1019.3
20260906164002 77 2 2.0 5.0 0.00 0.00 0.00 66 1019.4
20260906163457 77 348 2.0 2.0 0.00 0.00 0.00 69 1019.4
20260906162956 77 22 2.0 3.0 0.00 0.00 0.00 69 1019.3
20260906162454 78 100 5.0 5.0 0.00 0.00 0.00 65 1019.3
20260906161949 78 7 3.0 3.0 0.00 0.00 0.00 68 1019.3
20260906161450 78 192 1.0 2.0 0.00 0.00 0.00 67 1019.3
20260906160949 78 79 3.0 4.0 0.00 0.00 0.00 66 1019.3
20260906160448 78 131 0.0 2.0 0.00 0.00 0.00 69 1019.0
20260906155946 77 24 2.0 4.0 0.00 0.00 0.00 70 1019.0
20260906155445 77 75 2.0 4.0 0.00 0.00 0.00 74 1019.1
20260906154941 77 97 2.0 3.0 0.00 0.00 0.00 71 1018.9
20260906154437 77 203 0.0 2.0 0.00 0.00 0.00 72 1019.1
20260906153935 76 81 6.0 6.0 0.00 0.00 0.00 75 1019.0
20260906153434 76 78 3.0 3.0 0.00 0.00 0.00 75 1019.0
20260906152929 75 22 2.0 3.0 0.00 0.00 0.00 79 1018.9
20260906152424 75 75 2.0 5.0 0.00 0.00 0.00 75 1018.9
20260906151923 76 330 2.0 4.0 0.00 0.00 0.00 76 1019.0
20260906151419 75 336 2.0 3.0 0.00 0.00 0.00 77 1019.0
20260906150915 74 147 0.0 4.0 0.00 0.00 0.00 79 1018.7
20260906150415 74 63 2.0 3.0 0.00 0.00 0.00 80 1019.1
20260906145914 73 46 3.0 5.0 0.00 0.00 0.00 79 1019.2
20260906145413 73 11 2.0 5.0 0.00 0.00 0.00 81 1019.2
20260906144908 73 21 3.0 3.0 0.00 0.00 0.00 82 1019.0
20260906144403 73 97 2.0 4.0 0.00 0.00 0.00 81 1018.9
20260906143858 73 47 2.0 3.0 0.00 0.00 0.00 83 1019.0
20260906143354 73 304 0.0 3.0 0.00 0.00 0.00 83 1019.1
20260906142850 72 346 2.0 3.0 0.00 0.00 0.00 84 1018.9
20260906142344 72 89 1.0 5.0 0.00 0.00 0.00 84 1018.9
20260906141844 72 30 2.0 3.0 0.00 0.00 0.00 85 1019.1
20260906141339 72 92 1.0 5.0 0.00 0.00 0.00 85 1019.0
20260906140838 72 60 0.0 4.0 0.00 0.00 0.00 86 1019.3
20260906140333 72 101 2.0 3.0 0.00 0.00 0.00 86 1019.1
20260906135830 72 39 3.0 3.0 0.00 0.00 0.00 88 1019.3
20260906135326 72 17 3.0 6.0 0.00 0.00 0.00 86 1019.3
20260906134821 72 11 2.0 4.0 0.00 0.00 0.00 87 1019.2
20260906134316 71 76 2.0 3.0 0.00 0.00 0.00 89 1018.9
20260906133812 71 34 1.0 4.0 0.00 0.00 0.00 90 1019.0
20260906133307 70 87 2.0 4.0 0.00 0.00 0.00 91 1019.0
20260906132802 70 352 0.0 5.0 0.00 0.00 0.00 92 1018.6
20260906132306 70 67 3.0 4.0 0.00 0.00 0.00 93 1018.5
20260906131758 69 101 1.0 5.0 0.00 0.00 0.00 95 1018.6
20260906131253 69 14 2.0 4.0 0.00 0.00 0.00 96 1018.6
20260906130749 69 55 2.0 2.0 0.00 0.00 0.00 98 1018.9
20260906130244 69 110 1.0 3.0 0.00 0.00 0.00 99 1018.6
20260906125743 69 128 1.0 2.0 0.00 0.00 0.00 99 1018.7
20260906125241 67 44 0.0 4.0 0.00 0.00 0.00 99 1018.7
20260906124741 67 22 2.0 2.0 0.00 0.00 0.00 99 1018.5
20260906124237 67 43 1.0 2.0 0.00 0.00 0.00 99 1018.6
20260906123735 66 58 2.0 2.0 0.00 0.00 0.00 99 1018.5
20260906123231 66 53 0.0 2.0 0.00 0.00 0.00 99 1018.3
20260906122730 66 43 2.0 2.0 0.00 0.00 0.00 99 1018.3
20260906122226 66 74 1.0 2.0 0.00 0.00 0.00 99 1018.3
20260906121722 66 25 1.0 1.0 0.00 0.00 0.00 99 1018.4
20260906121218 66 53 2.0 2.0 0.00 0.00 0.00 99 1018.3
20260906120714 65 348 1.0 2.0 0.00 0.00 0.00 99 1018.2
20260906120210 65 66 1.0 2.0 0.00 0.00 0.00 99 1018.4
20260906115706 65 322 0.0 1.0 0.00 0.00 0.00 99 1018.0
20260906115201 65 50 0.0 1.0 0.00 0.00 0.00 99 1017.9
20260906114700 65 338 0.0 2.0 0.00 0.00 0.00 99 1017.8
20260906114155 65 47 0.0 2.0 0.00 0.00 0.00 99 1017.7
20260906113655 65 52 0.0 2.0 0.00 0.00 0.00 99 1017.7
20260906113155 65 40 0.0 2.0 0.00 0.00 0.00 99 1017.7
20260906112654 65 45 0.0 2.0 0.00 0.00 0.00 99 1017.7
20260906112152 65 33 1.0 2.0 0.00 0.00 0.00 99 1017.4
20260906111651 65 69 0.0 1.0 0.00 0.00 0.00 99 1017.6
20260906111145 65 72 1.0 2.0 0.00 0.00 0.00 99 1017.7
20260906110641 65 46 0.0 2.0 0.00 0.00 0.00 99 1017.5
20260906110136 65 85 2.0 2.0 0.00 0.00 0.00 99 1017.4
20260906105629 65 26 0.0 2.0 0.00 0.00 0.00 99 1017.4
20260906105126 65 22 0.0 2.0 0.00 0.00 0.00 99 1017.4
20260906104625 65 17 2.0 2.0 0.00 0.00 0.00 99 1017.3
20260906104119 65 14 0.0 2.0 0.00 0.00 0.00 99 1017.3
20260906103617 64 359 1.0 3.0 0.00 0.00 0.00 99 1017.4
20260906103114 64 35 2.0 2.0 0.00 0.00 0.00 99 1017.4
20260906102613 64 54 1.0 2.0 0.00 0.00 0.00 99 1017.3
20260906102108 64 38 1.0 2.0 0.00 0.00 0.00 99 1017.2
20260906101609 64 51 2.0 2.0 0.00 0.00 0.00 99 1017.0
20260906101108 64 56 1.0 2.0 0.00 0.00 0.00 99 1016.9
20260906100604 64 51 0.0 2.0 0.00 0.00 0.00 99 1017.2
20260906100059 64 49 0.0 2.0 0.00 0.00 0.00 99 1017.3
20260906095559 64 40 0.0 1.0 0.00 0.00 0.00 99 1017.2
20260906095054 65 60 1.0 1.0 0.00 0.00 0.00 99 1017.2
20260906094553 65 37 1.0 1.0 0.00 0.00 0.00 99 1017.1
20260906094049 65 55 0.0 2.0 0.00 0.00 0.00 99 1017.1
20260906093544 65 25 0.0 1.0 0.00 0.00 0.00 99 1016.9
20260906093040 65 46 0.0 2.0 0.00 0.00 0.00 99 1016.9
20260906092540 65 50 1.0 2.0 0.00 0.00 0.00 99 1017.1
20260906092035 65 34 1.0 1.0 0.00 0.00 0.00 99 1016.9
20260906091531 65 19 2.0 2.0 0.00 0.00 0.00 99 1016.8
20260906091028 65 35 2.0 2.0 0.00 0.00 0.00 98 1017.0
20260906090527 65 37 0.0 1.0 0.00 0.00 0.00 98 1017.0
20260906090023 65 32 1.0 2.0 0.00 0.00 0.00 98 1017.0
20260906085521 65 31 2.0 3.0 0.00 0.00 0.00 98 1016.8
20260906085021 65 51 1.0 2.0 0.00 0.00 0.00 98 1016.6
20260906084521 65 39 2.0 2.0 0.00 0.00 0.00 98 1016.8
20260906084020 65 41 1.0 2.0 0.00 0.00 0.00 98 1017.0
20260906083516 65 32 2.0 2.0 0.00 0.00 0.00 98 1016.9
20260906083015 65 51 0.0 1.0 0.00 0.00 0.00 98 1016.8
20260906082510 65 61 1.0 2.0 0.00 0.00 0.00 98 1016.7
20260906082006 65 48 0.0 1.0 0.00 0.00 0.00 98 1016.7
20260906081502 65 40 0.0 2.0 0.00 0.00 0.00 98 1016.9
20260906080957 65 37 0.0 1.0 0.00 0.00 0.00 98 1016.9
20260906080454 65 53 0.0 1.0 0.00 0.00 0.00 98 1016.8
20260906075954 66 69 1.0 1.0 0.00 0.00 0.00 97 1016.8
20260906075449 66 53 0.0 1.0 0.00 0.00 0.00 97 1016.7
20260906074945 66 35 1.0 2.0 0.00 0.00 0.00 97 1016.9
20260906074444 66 54 1.0 2.0 0.00 0.00 0.00 97 1016.9
20260906073943 66 41 1.0 2.0 0.00 0.00 0.00 97 1016.8
20260906073438 66 44 1.0 2.0 0.00 0.00 0.00 97 1016.7
20260906072934 66 40 1.0 1.0 0.00 0.00 0.00 97 1016.8
20260906072429 66 55 1.0 2.0 0.00 0.00 0.00 97 1016.9
20260906071925 67 48 1.0 2.0 0.00 0.00 0.00 97 1016.9
20260906071421 67 50 1.0 2.0 0.00 0.00 0.00 96 1016.9
20260906070917 67 53 0.0 1.0 0.00 0.00 0.00 96 1016.8
20260906070413 67 67 0.0 1.0 0.00 0.00 0.00 96 1017.0
20260906065908 67 43 0.0 1.0 0.00 0.00 0.00 96 1017.1
20260906065402 67 37 2.0 2.0 0.00 0.00 0.00 96 1017.0
20260906064858 68 34 1.0 2.0 0.00 0.00 0.00 96 1016.8
20260906064355 68 30 2.0 2.0 0.00 0.00 0.00 96 1016.8
20260906063854 68 10 2.0 2.0 0.00 0.00 0.00 96 1016.9
20260906063349 68 14 1.0 2.0 0.00 0.00 0.00 96 1016.9
20260906062844 68 35 2.0 3.0 0.00 0.00 0.00 95 1017.1
20260906062344 68 11 1.0 2.0 0.00 0.00 0.00 95 1017.2
20260906061839 69 17 2.0 2.0 0.00 0.00 0.00 95 1016.9
20260906061336 69 346 3.0 4.0 0.00 0.00 0.00 95 1016.7
20260906060836 69 23 4.0 4.0 0.00 0.00 0.00 94 1017.0
20260906060334 69 17 2.0 3.0 0.00 0.00 0.00 94 1017.0
20260906055830 69 16 2.0 3.0 0.00 0.00 0.00 94 1017.0
20260906055325 69 8 2.0 3.0 0.00 0.00 0.00 94 1017.0
20260906054820 69 20 2.0 3.0 0.00 0.00 0.00 94 1017.2
20260906054315 69 26 2.0 2.0 0.00 0.00 0.00 94 1017.1
20260906053812 69 11 3.0 3.0 0.00 0.00 0.00 94 1017.1
20260906053307 69 30 2.0 2.0 0.00 0.00 0.00 94 1017.1
20260906052802 69 26 1.0 2.0 0.00 0.00 0.00 93 1016.9
20260906052258 69 31 2.0 3.0 0.00 0.00 0.00 94 1016.9
20260906051755 69 19 2.0 3.0 0.00 0.00 0.00 94 1016.6
20260906051254 69 27 2.0 2.0 0.00 0.00 0.00 93 1016.6
20260906050750 69 23 2.0 4.0 0.00 0.00 0.00 93 1016.7
20260906050245 69 23 2.0 3.0 0.00 0.00 0.00 93 1016.7
20260906045744 69 28 1.0 2.0 0.00 0.00 0.00 93 1016.7
20260906045239 69 10 2.0 2.0 0.00 0.00 0.00 94 1016.6
20260906044734 69 9 1.0 2.0 0.00 0.00 0.00 94 1016.6
20260906044229 69 5 1.0 3.0 0.00 0.00 0.00 94 1016.5
20260906043726 69 0 1.0 3.0 0.00 0.00 0.00 94 1016.4
20260906043221 69 41 2.0 3.0 0.00 0.00 0.00 94 1016.2
20260906042720 69 35 2.0 3.0 0.00 0.00 0.00 94 1016.4
20260906042219 69 349 2.0 2.0 0.00 0.00 0.00 93 1016.1
20260906041715 69 20 3.0 4.0 0.00 0.00 0.00 93 1016.4
20260906041210 69 17 2.0 2.0 0.00 0.00 0.00 94 1016.0
20260906040706 69 29 3.0 4.0 0.00 0.00 0.00 93 1015.9
20260906040201 69 5 2.0 4.0 0.00 0.00 0.00 93 1015.8
20260906035657 69 56 2.0 4.0 0.00 0.00 0.00 93 1015.8
20260906035152 69 17 2.0 4.0 0.00 0.00 0.00 93 1015.9
20260906034647 69 24 3.0 4.0 0.00 0.00 0.00 93 1015.7
20260906034141 69 27 4.0 4.0 0.00 0.00 0.00 93 1016.0
20260906033637 69 16 1.0 2.0 0.00 0.00 0.00 93 1015.7
20260906033131 69 24 2.0 3.0 0.00 0.00 0.00 92 1015.9
20260906032628 69 9 2.0 3.0 0.00 0.00 0.00 92 1015.7
20260906032128 69 74 2.0 3.0 0.00 0.00 0.00 92 1015.6
20260906031623 69 114 0.0 3.0 0.00 0.00 0.00 92 1015.8
20260906031119 69 8 2.0 3.0 0.00 0.00 0.00 92 1015.8
20260906030618 69 37 2.0 3.0 0.00 0.00 0.00 92 1015.7
20260906030113 69 42 2.0 4.0 0.00 0.00 0.00 92 1015.7
20260906025613 70 43 2.0 3.0 0.00 0.00 0.00 92 1015.8
20260906025111 70 53 0.0 2.0 0.00 0.00 0.00 92 1016.0
20260906024606 70 50 1.0 2.0 0.00 0.00 0.00 91 1015.7
20260906024102 70 70 1.0 3.0 0.00 0.00 0.00 91 1015.8
20260906023557 70 81 0.0 4.0 0.00 0.00 0.00 91 1015.7
20260906023051 70 67 1.0 4.0 0.00 0.00 0.00 90 1015.6
20260906022547 70 22 3.0 4.0 0.00 0.00 0.00 90 1015.4
20260906022043 70 0 2.0 3.0 0.00 0.00 0.00 90 1015.5
20260906021538 71 20 2.0 3.0 0.00 0.00 0.00 90 1015.6
20260906021037 71 63 0.0 3.0 0.00 0.00 0.00 90 1015.4
20260906020536 71 89 2.0 2.0 0.00 0.00 0.00 89 1015.6
20260906020036 71 26 2.0 2.0 0.00 0.00 0.00 89 1015.5
20260906015535 71 22 2.0 2.0 0.00 0.00 0.00 89 1015.7
20260906015035 71 354 1.0 4.0 0.00 0.00 0.00 89 1015.9
20260906014530 71 42 1.0 2.0 0.00 0.00 0.00 89 1015.9
20260906014026 71 18 2.0 4.0 0.00 0.00 0.00 90 1015.8
20260906013521 71 13 4.0 4.0 0.00 0.00 0.00 90 1015.7
20260906013017 71 350 3.0 4.0 0.00 0.00 0.00 90 1015.9
20260906012512 71 4 2.0 4.0 0.00 0.00 0.00 90 1015.5
20260906012011 71 356 2.0 3.0 0.00 0.00 0.00 90 1015.7
20260906011508 71 17 1.0 4.0 0.00 0.00 0.00 89 1016.1
20260906011008 71 338 2.0 4.0 0.00 0.00 0.00 89 1015.7
20260906010503 71 1 5.0 6.0 0.00 0.00 0.00 89 1015.9
20260906005959 71 38 3.0 4.0 0.00 0.00 0.00 89 1015.6
20260906005458 71 6 2.0 4.0 0.00 0.00 0.00 89 1015.6
20260906004957 71 347 4.0 4.0 0.00 0.00 0.00 89 1015.7
20260906004457 71 28 4.0 4.0 0.00 0.00 0.00 89 1015.4
20260906003952 71 354 2.0 2.0 0.00 0.00 0.00 89 1015.5
20260906003447 71 37 4.0 4.0 0.00 0.00 0.00 89 1015.4
20260906002937 71 341 6.0 7.0 0.00 0.00 0.00 89 1015.4
20260906002436 71 69 4.0 5.0 0.00 0.00 0.00 88 1015.4
20260906001931 71 317 2.0 5.0 0.00 0.00 0.00 88 1015.2
20260906001427 71 29 4.0 4.0 0.00 0.00 0.00 89 1015.3
20260906000917 71 15 2.0 3.0 0.00 0.00 0.00 89 1015.3
20260906000412 71 1 3.0 4.0 0.00 0.00 0.00 89 1015.3
20260905235907 71 9 2.0 6.0 0.00 0.00 0.00 89 1015.4
20260905235407 71 308 0.0 5.0 0.00 0.00 0.00 89 1015.2
20260905234902 71 351 3.0 7.0 0.00 0.00 0.00 89 1015.1
20260905234357 71 118 2.0 4.0 0.00 0.00 0.00 88 1015.2
20260905233852 72 275 2.0 9.0 0.00 0.00 0.00 88 1015.3
20260905233347 72 351 4.0 5.0 0.00 0.00 0.00 88 1015.1
20260905232846 72 344 3.0 5.0 0.00 0.00 0.00 88 1015.3
20260905232343 73 345 3.0 7.0 0.00 0.00 0.00 87 1015.0
20260905231838 73 351 2.0 4.0 0.00 0.00 0.00 86 1015.4
20260905231338 74 341 3.0 6.0 0.00 0.00 0.00 85 1014.9
20260905230835 74 337 3.0 5.0 0.00 0.00 0.00 85 1014.9
20260905230333 75 338 3.0 6.0 0.00 0.00 0.00 84 1014.9
20260905225832 75 14 3.0 5.0 0.00 0.00 0.00 83 1014.9
20260905225328 76 7 4.0 6.0 0.00 0.00 0.00 82 1014.8
20260905224827 76 352 1.0 4.0 0.00 0.00 0.00 83 1015.0
20260905224323 76 353 2.0 3.0 0.00 0.00 0.00 83 1014.8
20260905223818 76 352 3.0 4.0 0.00 0.00 0.00 83 1014.4
20260905223316 77 9 2.0 5.0 0.00 0.00 0.00 82 1014.5
20260905222811 77 64 2.0 8.0 0.00 0.00 0.00 80 1014.6
20260905222309 78 358 4.0 7.0 0.00 0.00 0.00 80 1014.4
20260905221805 78 6 3.0 4.0 0.00 0.00 0.00 80 1014.6
20260905221302 78 353 2.0 4.0 0.00 0.00 0.00 81 1014.6
20260905220757 77 18 4.0 7.0 0.00 0.00 0.00 81 1014.6
20260905220254 78 335 4.0 5.0 0.00 0.00 0.00 80 1014.5
20260905215753 79 353 4.0 6.0 0.00 0.00 0.00 79 1014.6
20260905215249 79 354 3.0 3.0 0.00 0.00 0.00 80 1014.6
20260905214744 79 41 1.0 4.0 0.00 0.00 0.00 81 1014.2
20260905214240 79 34 0.0 5.0 0.00 0.00 0.00 80 1014.2
20260905213735 80 318 3.0 4.0 0.00 0.00 0.00 80 1014.5
20260905213231 80 97 4.0 5.0 0.00 0.00 0.00 79 1014.2
20260905212726 79 15 3.0 4.0 0.00 0.00 0.00 79 1014.1
20260905212225 79 346 2.0 4.0 0.00 0.00 0.00 79 1014.2
20260905211720 79 343 2.0 3.0 0.00 0.00 0.00 77 1014.2
20260905211215 80 353 3.0 4.0 0.00 0.00 0.00 75 1014.1
20260905210712 80 349 4.0 5.0 0.00 0.00 0.00 75 1013.9
20260905210211 79 356 2.0 4.0 0.00 0.00 0.00 77 1014.0
20260905205711 79 357 2.0 2.0 0.00 0.00 0.00 78 1013.9
20260905205210 80 19 2.0 3.0 0.00 0.00 0.00 77 1014.0
20260905204710 80 12 2.0 3.0 0.00 0.00 0.00 76 1014.2
20260905204206 79 3 3.0 4.0 0.00 0.00 0.00 79 1014.4